When you browse on this site, cookies collect data to enhance your experience and personalize the content and advertising you see.
Visit our Privacy Policy to learn more. By continuing to use the site, you agree to this use of cookies and data.
  • In Portugal
  • List of Countries
  • For 7 days
  • Water Temperature
  • Satellite Maps
  • Weather Map
  • Weather Widgets
  • user-avatar
    Login

    Hourly Weather Verhnyaya Vasilevka

    Today, 24 April, Wednesday

    Time Temperature Precipitation Wind Pressure Humidity
    00:00 +6°C° 0 mm 2 mps 754 mmHg 73%
    01:00 +5°C° 0 mm 2 mps 754 mmHg 75%
    02:00 +5°C° 0 mm 2 mps 754 mmHg 76%
    03:00 +5°C° 0 mm 1 mps 754 mmHg 78%
    04:00 +6°C° 0 mm 1 mps 754 mmHg 77%
    05:00 +6°C° 0 mm 1 mps 754 mmHg 75%
    06:00 +6°C° 0 mm 1 mps 754 mmHg 74%
    07:00 +7°C° 0 mm 2 mps 754 mmHg 67%
    08:00 +9°C° 0 mm 2 mps 754 mmHg 59%
    09:00 +11°C° 0 mm 3 mps 754 mmHg 51%
    10:00 +12°C° 0 mm 3 mps 753 mmHg 48%
    11:00 +14°C° 0 mm 4 mps 753 mmHg 44%
    12:00 +15°C° 0 mm 4 mps 753 mmHg 40%
    13:00 +16°C° 0 mm 5 mps 752 mmHg 41%
    14:00 +16°C° 0 mm 5 mps 752 mmHg 42%
    15:00 +17°C° 0 mm 5 mps 751 mmHg 42%
    16:00 +16°C° 0 mm 5 mps 751 mmHg 46%
    17:00 +17°C° 0 mm 4 mps 751 mmHg 50%
    18:00 +17°C° 0 mm 3 mps 751 mmHg 53%
    19:00 +14°C° 0 mm 3 mps 751 mmHg 58%
    20:00 +13°C° 0 mm 3 mps 751 mmHg 63%
    21:00 +12°C° 0 mm 3 mps 751 mmHg 67%
    22:00 +11°C° 0 mm 3 mps 752 mmHg 72%
    23:00 +12°C° 0 mm 2 mps 752 mmHg 77%

    Tomorrow, 25 April, Thursday

    Time Temperature Precipitation Wind Pressure Humidity
    00:00 +10°C° 0 mm 2 mps 752 mmHg 81%
    01:00 +10°C° 0 mm 1 mps 752 mmHg 83%
    02:00 +10°C° 0 mm 1 mps 752 mmHg 84%
    03:00 +8°C° 0 mm 0 mps 752 mmHg 86%
    04:00 +10°C° 0 mm 1 mps 752 mmHg 84%
    05:00 +10°C° 0 mm 1 mps 752 mmHg 81%
    06:00 +10°C° 0 mm 2 mps 752 mmHg 79%
    07:00 +12°C° 0 mm 3 mps 752 mmHg 73%
    08:00 +13°C° 0 mm 4 mps 752 mmHg 66%
    09:00 +15°C° 0 mm 5 mps 752 mmHg 60%
    10:00 +16°C° 0.1 mm 5 mps 752 mmHg 55%
    11:00 +17°C° 0.1 mm 6 mps 752 mmHg 49%
    12:00 +19°C° 0.1 mm 6 mps 751 mmHg 44%
    13:00 +19°C° 0.1 mm 6 mps 751 mmHg 46%
    14:00 +19°C° 0.1 mm 6 mps 751 mmHg 47%
    15:00 +17°C° 0.1 mm 6 mps 751 mmHg 49%
    16:00 +16°C° 0.1 mm 5 mps 751 mmHg 51%
    17:00 +15°C° 0.1 mm 5 mps 752 mmHg 54%
    18:00 +14°C° 0.1 mm 5 mps 752 mmHg 56%
    19:00 +13°C° 0 mm 4 mps 752 mmHg 59%
    20:00 +12°C° 0 mm 3 mps 752 mmHg 61%
    21:00 +10°C° 0 mm 3 mps 753 mmHg 64%
    22:00 +9°C° 0 mm 3 mps 753 mmHg 66%
    23:00 +8°C° 0 mm 2 mps 753 mmHg 68%

    Day after tomorrow, 26 April, Friday

    Time Temperature Precipitation Wind Pressure Humidity
    00:00 +8°C° 0 mm 2 mps 753 mmHg 70%
    01:00 +7°C° 0 mm 2 mps 753 mmHg 71%
    02:00 +6°C° 0 mm 2 mps 754 mmHg 73%
    03:00 +6°C° 0 mm 2 mps 754 mmHg 74%
    04:00 +6°C° 0 mm 2 mps 754 mmHg 71%
    05:00 +6°C° 0 mm 2 mps 754 mmHg 69%
    06:00 +6°C° 0 mm 2 mps 754 mmHg 67%
    07:00 +8°C° 0 mm 3 mps 755 mmHg 60%
    08:00 +9°C° 0 mm 3 mps 755 mmHg 52%
    09:00 +10°C° 0 mm 4 mps 755 mmHg 45%
    10:00 +11°C° 0 mm 3 mps 755 mmHg 46%
    11:00 +11°C° 0 mm 3 mps 755 mmHg 47%
    12:00 +11°C° 0 mm 3 mps 755 mmHg 47%
    13:00 +11°C° 0 mm 3 mps 755 mmHg 46%
    14:00 +11°C° 0 mm 3 mps 755 mmHg 46%
    15:00 +12°C° 0 mm 3 mps 755 mmHg 45%
    16:00 +11°C° 0 mm 3 mps 755 mmHg 46%
    17:00 +12°C° 0 mm 2 mps 755 mmHg 46%
    18:00 +12°C° 0 mm 2 mps 755 mmHg 47%
    19:00 +11°C° 0 mm 1 mps 755 mmHg 50%
    20:00 +10°C° 0 mm 1 mps 755 mmHg 52%
    21:00 +8°C° 0 mm 1 mps 755 mmHg 54%
    22:00 +8°C° 0 mm 1 mps 755 mmHg 55%
    23:00 +6°C° 0 mm 0 mps 755 mmHg 56%

    27 April, Saturday

    Time Temperature Precipitation Wind Pressure Humidity
    00:00 +6°C° 0 mm 0 mps 755 mmHg 57%
    01:00 +7°C° 0 mm 1 mps 755 mmHg 58%
    02:00 +6°C° 0 mm 1 mps 755 mmHg 59%
    03:00 +5°C° 0 mm 2 mps 755 mmHg 61%
    04:00 +6°C° 0 mm 2 mps 754 mmHg 62%
    05:00 +6°C° 0 mm 2 mps 754 mmHg 63%
    06:00 +6°C° 0 mm 2 mps 754 mmHg 64%
    07:00 +9°C° 0 mm 3 mps 753 mmHg 58%
    08:00 +11°C° 0 mm 4 mps 753 mmHg 52%
    09:00 +13°C° 0 mm 5 mps 752 mmHg 46%
    10:00 +14°C° 0 mm 5 mps 752 mmHg 45%
    11:00 +16°C° 0 mm 5 mps 751 mmHg 44%
    12:00 +17°C° 0 mm 6 mps 751 mmHg 43%
    13:00 +17°C° 0.1 mm 5 mps 750 mmHg 45%
    14:00 +17°C° 0.1 mm 5 mps 749 mmHg 48%
    15:00 +17°C° 0.1 mm 5 mps 748 mmHg 50%
    16:00 +17°C° 1.2 mm 4 mps 748 mmHg 60%
    17:00 +14°C° 1.2 mm 4 mps 747 mmHg 70%
    18:00 +13°C° 1.2 mm 3 mps 746 mmHg 80%
    19:00 +13°C° 0.5 mm 4 mps 746 mmHg 82%
    20:00 +13°C° 0.5 mm 5 mps 745 mmHg 83%
    21:00 +13°C° 0.5 mm 5 mps 744 mmHg 84%
    22:00 +12°C° 0.1 mm 5 mps 744 mmHg 84%
    23:00 +12°C° 0.1 mm 5 mps 744 mmHg 84%

    28 April, Sunday

    Time Temperature Precipitation Wind Pressure Humidity
    00:00 +10°C° 0.1 mm 5 mps 743 mmHg 83%
    01:00 +10°C° 0.1 mm 5 mps 743 mmHg 85%
    02:00 +10°C° 0.1 mm 4 mps 743 mmHg 86%
    03:00 +10°C° 0.1 mm 4 mps 742 mmHg 87%
    04:00 +9°C° 0.1 mm 5 mps 742 mmHg 86%
    05:00 +10°C° 0.1 mm 5 mps 742 mmHg 85%
    06:00 +10°C° 0.1 mm 6 mps 742 mmHg 84%
    07:00 +10°C° 1.3 mm 5 mps 742 mmHg 86%
    08:00 +9°C° 1.3 mm 5 mps 742 mmHg 88%
    09:00 +10°C° 1.3 mm 4 mps 742 mmHg 90%
    10:00 +9°C° 0.2 mm 5 mps 743 mmHg 85%
    11:00 +10°C° 0.2 mm 5 mps 743 mmHg 79%
    12:00 +10°C° 0.2 mm 5 mps 744 mmHg 73%
    13:00 +10°C° 0 mm 5 mps 744 mmHg 67%
    14:00 +10°C° 0 mm 6 mps 744 mmHg 60%
    15:00 +10°C° 0 mm 6 mps 745 mmHg 53%
    16:00 +9°C° 0 mm 6 mps 745 mmHg 53%
    17:00 +8°C° 0 mm 5 mps 746 mmHg 53%
    18:00 +7°C° 0 mm 5 mps 746 mmHg 54%
    19:00 +6°C° 0 mm 5 mps 747 mmHg 55%
    20:00 +5°C° 0 mm 5 mps 748 mmHg 57%
    21:00 +3°C° 0 mm 5 mps 748 mmHg 59%
    22:00 +2°C° 0 mm 5 mps 749 mmHg 59%
    23:00 +1°C° 0 mm 5 mps 749 mmHg 58%

    29 April, Monday

    Time Temperature Precipitation Wind Pressure Humidity
    00:00 0°C° 0 mm 5 mps 750 mmHg 58%
    01:00 0°C° 0 mm 5 mps 750 mmHg 59%
    02:00 -1°C° 0 mm 4 mps 750 mmHg 61%
    03:00 -2°C° 0 mm 4 mps 751 mmHg 62%
    04:00 -2°C° 0 mm 5 mps 751 mmHg 62%
    05:00 -2°C° 0 mm 5 mps 751 mmHg 62%
    06:00 -2°C° 0 mm 5 mps 752 mmHg 62%
    07:00 -1°C° 0 mm 5 mps 752 mmHg 58%
    08:00 -1°C° 0 mm 6 mps 752 mmHg 54%
    09:00 +2°C° 0 mm 6 mps 752 mmHg 50%
    10:00 +2°C° 0 mm 5 mps 752 mmHg 47%
    11:00 +3°C° 0 mm 5 mps 752 mmHg 45%
    12:00 +3°C° 0 mm 5 mps 752 mmHg 43%
    13:00 +5°C° 0 mm 5 mps 752 mmHg 42%
    14:00 +5°C° 0 mm 5 mps 752 mmHg 40%
    15:00 +5°C° 0 mm 5 mps 752 mmHg 38%
    16:00 +5°C° 0 mm 5 mps 752 mmHg 40%
    17:00 +4°C° 0 mm 4 mps 752 mmHg 41%
    18:00 +4°C° 0 mm 4 mps 752 mmHg 42%
    19:00 +3°C° 0 mm 3 mps 752 mmHg 45%
    20:00 +2°C° 0 mm 3 mps 753 mmHg 48%
    21:00 +2°C° 0 mm 2 mps 753 mmHg 52%
    22:00 +1°C° 0 mm 2 mps 753 mmHg 53%
    23:00 +1°C° 0 mm 2 mps 753 mmHg 53%
    Show more